Location: Alexandria
(38.8050°N, 77.0470°W)
Time: 09:34:36

Hubble Space Telescope - Pass Details

Date: 16 March 2018
Orbit: 537 x 541 km, 28.5° (Epoch: 21 March)

Event Time Altitude Azimuth Distance (km) Brightness Sun altitude
Rises 19:37:34 0° 243° (WSW) 2,678 5.6 -5.0°
Reaches altitude 10° 19:40:18 10° 226° (SW) 1,787 4.1 -5.5°
Maximum altitude 19:43:17 19° 179° (S) 1,295 2.7 -6.1°
Drops below altitude 10° 19:46:17 10° 133° (SE) 1,786 3.0 -6.7°
Enters shadow 19:47:32 - 123° (ESE) 2,171 3.3 -6.9°
